New Bern, NC

9:38 AM EDT on October 23, 2019 (GMT -0400)
Craven County Regional

Weather History for KEWN - August, 2019

Change the Weather History Date:

Thursday, August 1, 2019

  Actual Average Record
Temperature  
Mean Temperature 80 °F 80 °F  
Max Temperature 91 °F 89 °F 100 °F (1999)
Min Temperature 70 °F 72 °F 58 °F (2017)
Degree Days  
Heating Degree Days 0 0  
Month to date heating degree days 0 0  
Since 1 June heating degree days 0 1  
Since 1 July heating degree days 0 0  
Cooling Degree Days 16 15  
Month to date cooling degree days 16 15  
Year to date cooling degree days 1335 1105  
Since 1 June cooling degree days 916 862  
Growing Degree Days 30 (Base 50)    
Moisture  
Dew Point 72 °F    
Average Humidity 80    
Maximum Humidity 100    
Minimum Humidity 57    
Precipitation  
Precipitation 0.01 in 0.21 in 1.97 in (2014)
Month to date precipitation 0.01 0.21  
Year to date precipitation 22.95 30.36  
Snow  
Snow 0.00 in - - ()
Month to date snowfall 0.0  
Since 1 July snowfall 0.0  
Snow Depth 0.00 in    
Sea Level Pressure  
Sea Level Pressure 30.08 in    
Wind  
Wind Speed 3 mph ()    
Max Wind Speed 18 mph    
Max Gust Speed 25 mph    
Visibility 10.0 miles    
Events Rain , Thunderstorm    
T = Trace of Precipitation, MM = Missing Value Source: Averaged Metar Reports

Daily Weather History Graph

Daily Weather History Graph

Search for Another Location

Airport or City:

Astronomy

Aug. 01, 2019 Rise Set
Actual Time 6:17 AM EDT 8:11 PM EDT
Civil Twilight 5:49 AM EDT 8:39 PM EDT
Nautical Twilight 5:15 AM EDT 9:12 PM EDT
Astronomical Twilight 4:39 AM EDT 9:48 PM EDT
Moon 6:40 AM EDT (8/1) 8:57 PM EDT (8/1)
Length of Visible Light 14h 49m
Length of Day
13h 54m
New Moon, 0% of the Moon is Illuminated
Aug 1
New Moon
Aug 7
First Quarter
Aug 15
Full
Aug 23
Last Quarter
Aug 30
New

Hourly Weather History & Observations

Time (EDT) Temp. Heat Index Dew Point Humidity Pressure Visibility Wind Dir Wind Speed Gust Speed Precip Events Conditions
12:54 AM 73.9 °F - 73.0 °F 97% 30.07 in 10.0 mi WSW 3.5 mph - N/A   Scattered Clouds
1:54 AM 73.0 °F - 72.0 °F 96% 30.07 in 10.0 mi Calm Calm - N/A   Clear
2:44 AM 75.9 °F - 73.9 °F 94% 30.08 in 10.0 mi NE 8.1 mph - N/A   Overcast
2:54 AM 75.9 °F - 73.9 °F 94% 30.08 in 10.0 mi North 6.9 mph - N/A   Overcast
3:15 AM 75.0 °F - 73.9 °F 96% 30.08 in 10.0 mi NE 4.6 mph - N/A   Mostly Cloudy
3:29 AM 75.0 °F - 73.9 °F 96% 30.07 in 10.0 mi NNE 5.8 mph - N/A   Mostly Cloudy
3:46 AM 75.0 °F - 73.0 °F 94% 30.07 in 10.0 mi NNE 5.8 mph - N/A   Mostly Cloudy
3:54 AM 73.9 °F - 72.0 °F 93% 30.07 in 10.0 mi NE 5.8 mph - N/A   Mostly Cloudy
4:54 AM 72.0 °F - 71.1 °F 97% 30.06 in 10.0 mi SSE 3.5 mph - N/A   Clear
5:54 AM 71.1 °F - 70.0 °F 96% 30.06 in 10.0 mi Calm Calm - N/A   Clear
6:54 AM 72.0 °F - 70.0 °F 93% 30.07 in 10.0 mi Calm Calm - N/A   Clear
7:54 AM 75.9 °F - 73.9 °F 94% 30.08 in 10.0 mi Calm Calm - N/A   Clear
8:54 AM 80.1 °F 84.5 °F 73.9 °F 81% 30.09 in 10.0 mi SW 4.6 mph - N/A   Clear
9:54 AM 84.0 °F 91.2 °F 73.9 °F 72% 30.10 in 10.0 mi WSW 4.6 mph - N/A   Clear
10:54 AM 86.0 °F 93.8 °F 73.9 °F 67% 30.11 in 10.0 mi Calm Calm - N/A   Clear
11:54 AM 89.1 °F 97.0 °F 73.0 °F 59% 30.11 in 10.0 mi Variable 3.5 mph - N/A   Clear
12:06 PM 89.1 °F 97.0 °F 73.0 °F 59% 30.11 in 10.0 mi Variable 3.5 mph - N/A Thunderstorm Clear
12:21 PM 91.0 °F 100.4 °F 73.9 °F 57% 30.11 in 10.0 mi Calm Calm - N/A   Partly Cloudy
12:54 PM 90.0 °F 97.9 °F 73.0 °F 57% 30.09 in 10.0 mi Variable 3.5 mph - N/A   Mostly Cloudy
1:49 PM 87.8 °F 93.8 °F 71.6 °F 58% 30.09 in 10.0 mi ENE 6.9 mph - N/A Thunderstorm Overcast
1:54 PM 88.0 °F 94.7 °F 72.0 °F 59% 30.09 in 10.0 mi ENE 5.8 mph - N/A Thunderstorm Overcast
2:20 PM 77.0 °F - 70.0 °F 79% 30.09 in 10.0 mi East 13.8 mph 24.2 mph 0.01 in Rain Rain
2:54 PM 77.0 °F - 70.0 °F 79% 30.08 in 10.0 mi ESE 3.5 mph - 0.01 in Rain Light Rain
3:22 PM 80.1 °F 83.6 °F 71.1 °F 74% 30.08 in 10.0 mi East 8.1 mph - 0.00 in Thunderstorm Mostly Cloudy
3:37 PM 80.1 °F 82.9 °F 69.1 °F 69% 30.07 in 10.0 mi SE 10.4 mph 20.7 mph 0.00 in   Partly Cloudy
3:54 PM 81.0 °F 84.9 °F 71.1 °F 72% 30.06 in 10.0 mi SSE 5.8 mph - 0.00 in   Partly Cloudy
4:54 PM 80.1 °F 82.1 °F 66.0 °F 62% 30.07 in 10.0 mi South 3.5 mph - N/A   Clear
5:54 PM 78.1 °F - 66.9 °F 68% 30.05 in 10.0 mi SW 3.5 mph - N/A   Clear
6:54 PM 80.1 °F 82.7 °F 68.0 °F 67% 30.07 in 10.0 mi Calm Calm - N/A   Clear
7:54 PM 75.9 °F - 70.0 °F 82% 30.08 in 10.0 mi Calm Calm - N/A   Clear
8:54 PM 73.9 °F - 69.1 °F 85% 30.08 in 10.0 mi Calm Calm - N/A   Clear
9:54 PM 73.9 °F - 70.0 °F 87% 30.10 in 10.0 mi Calm Calm - N/A   Clear
10:54 PM 73.9 °F - 71.1 °F 91% 30.09 in 10.0 mi Calm Calm - N/A   Clear
11:54 PM 72.0 °F - 71.1 °F 97% 30.09 in 10.0 mi Calm Calm - N/A   Clear